EW3225 Weather Reports


Display with metric or nautical units.
time (UTC)temp
F
wind
direction
speed
MPH
gust
MPH
rain 1hr
in
rain 24hr
in
rain mn
in
humidity
%
barometer
mb
20260507131546 52 277 0.0 0.0 0.00 0.00 0.00 92 1015.6
20260507130038 52 277 0.0 0.0 0.00 0.00 0.00 92 1015.5
20260507124537 52 277 0.0 0.0 0.00 0.00 0.00 92 1015.6
20260507123034 52 277 0.0 0.0 0.00 0.00 0.00 92 1015.5
20260507121534 53 277 0.0 0.0 0.00 0.00 0.00 91 1015.5
20260507120032 53 277 0.0 0.0 0.00 0.00 0.00 91 1015.6
20260507114529 53 277 0.0 0.0 0.00 0.00 0.00 91 1015.6
20260507113027 54 277 0.0 0.0 0.00 0.00 0.00 91 1015.7
20260507111526 54 277 0.0 0.0 0.00 0.00 0.00 91 1015.8
20260507110025 54 277 0.0 0.0 0.00 0.00 0.00 91 1015.8
20260507104523 54 277 0.0 0.0 0.00 0.00 0.00 90 1015.9
20260507103022 54 277 0.0 0.0 0.00 0.00 0.00 90 1015.9
20260507101522 54 277 0.0 0.0 0.00 0.00 0.00 90 1016.0
20260507100020 54 277 0.0 0.0 0.00 0.00 0.00 89 1016.0
20260507094520 54 277 0.0 0.0 0.00 0.00 0.00 89 1016.0
20260507093018 55 277 0.0 0.0 0.00 0.00 0.00 89 1016.2
20260507091515 55 277 0.0 0.0 0.00 0.00 0.00 89 1016.4
20260507090012 55 277 0.0 0.0 0.00 0.00 0.00 88 1016.6
20260507084532 55 277 0.0 0.0 0.00 0.00 0.00 88 1016.8
20260507083009 55 277 0.0 0.0 0.00 0.00 0.00 88 1016.8
20260507081510 56 277 0.0 0.0 0.00 0.00 0.00 87 1016.9
20260507080008 56 277 0.0 0.0 0.00 0.00 0.00 87 1017.0
20260507074508 56 277 0.0 0.0 0.00 0.00 0.00 86 1016.9
20260507073004 56 277 0.0 0.0 0.00 0.00 0.00 86 1016.9
20260507071502 56 277 0.0 0.0 0.00 0.00 0.00 85 1016.9
20260507070108 57 277 0.0 0.0 0.00 0.00 0.00 85 1017.0
20260507064600 57 277 0.0 0.0 0.00 0.00 0.00 85 1017.1
20260507063059 58 277 0.0 0.0 0.00 0.00 0.00 84 1017.2
20260507061558 58 277 0.0 0.0 0.00 0.00 0.00 83 1017.2
20260507054613 58 277 0.0 0.0 0.00 0.00 0.00 81 1017.3
20260507053107 58 277 0.0 0.0 0.00 0.00 0.00 80 1017.2
20260507051600 59 277 0.0 0.0 0.00 0.00 0.00 79 1017.1
20260507050058 59 277 0.0 0.0 0.00 0.00 0.00 79 1017.1
20260507044559 59 277 0.0 0.0 0.00 0.00 0.00 78 1017.1
20260507043055 60 277 0.0 0.0 0.00 0.00 0.00 76 1017.1
20260507041603 60 277 0.0 0.0 0.00 0.00 0.00 75 1017.0
20260507040055 61 277 0.0 0.0 0.00 0.00 0.00 74 1016.9
20260507034557 61 277 0.0 0.0 0.00 0.00 0.00 73 1016.8
20260507033055 62 277 0.0 0.0 0.00 0.00 0.00 71 1016.7
20260507031553 63 277 0.0 0.0 0.00 0.00 0.00 71 1016.6
20260507030052 63 277 0.0 0.0 0.00 0.00 0.00 70 1016.4
20260507024555 64 277 0.0 0.0 0.00 0.00 0.00 69 1016.3
20260507023052 64 277 0.0 2.0 0.00 0.00 0.00 69 1016.2
20260507021608 65 275 0.0 1.0 0.00 0.00 0.00 69 1016.0
20260507020107 66 276 0.0 5.0 0.00 0.00 0.00 68 1015.9
20260507014617 67 291 0.0 2.0 0.00 0.00 0.00 68 1015.8
20260507013052 67 291 0.0 3.0 0.00 0.00 0.00 66 1015.7
20260507011557 68 281 0.0 3.0 0.00 0.00 0.00 66 1015.6
20260507010047 0 0.0 0.0 0.00 0.00 0.00 1015.6
20260507004541 0 0.0 0.0 0.00 0.00 0.00 1015.5
20260507003037 0 0.0 0.0 0.00 0.00 0.00 1015.5
20260507001552 0 0.0 0.0 0.00 0.00 0.00 1015.4
20260507000032 0 0.0 0.0 0.00 0.00 0.00 1015.3
20260506234523 0 0.0 0.0 0.00 0.00 0.00 1015.3
20260506233020 0 0.0 0.0 0.00 0.00 0.00 1015.3
20260506231519 0 0.0 0.0 0.00 0.00 0.00 1015.3
20260506230010 0 0.0 0.0 0.00 0.00 0.00 1015.4
20260506224506 0 0.0 0.0 0.00 0.00 0.00 1015.6
20260506223002 0 0.0 0.0 0.00 0.00 0.00 1015.8
20260506221604 75 271 0.0 6.0 0.00 0.00 0.00 51 1015.8
20260506220055 75 263 0.0 6.0 0.00 0.00 0.00 51 1016.0
20260506214553 75 274 1.0 12.0 0.00 0.00 0.00 51 1016.0
20260506213054 74 271 0.0 5.0 0.00 0.00 0.00 55 1016.3
20260506211552 73 264 0.0 5.0 0.00 0.00 0.00 57 1016.6
20260506210048 73 281 0.0 5.0 0.00 0.00 0.00 57 1016.6
20260506204546 73 244 0.0 7.0 0.00 0.00 0.00 57 1016.7
20260506203042 73 274 0.0 5.0 0.00 0.00 0.00 58 1016.8
20260506201541 73 308 1.0 9.0 0.00 0.00 0.00 58 1017.0
20260506200039 73 268 0.0 5.0 0.00 0.00 0.00 60 1017.1
20260506194540 73 242 0.0 6.0 0.00 0.00 0.00 61 1017.3
20260506193045 72 256 0.0 6.0 0.00 0.00 0.00 62 1017.3
20260506191534 71 159 2.0 7.0 0.00 0.00 0.00 61 1017.5
20260506190032 72 163 0.0 6.0 0.00 0.00 0.00 62 1017.6
20260506184536 71 175 3.0 11.0 0.00 0.00 0.00 61 1017.7
20260506183032 71 181 2.0 7.0 0.00 0.00 0.00 61 1017.9
20260506181540 71 183 1.0 6.0 0.00 0.00 0.00 61 1018.0
20260506180026 70 197 1.0 6.0 0.00 0.00 0.00 63 1018.1
20260506174523 69 259 0.0 4.0 0.00 0.00 0.00 64 1018.0
20260506173038 69 250 0.0 5.0 0.00 0.00 0.00 66 1018.1
20260506171521 69 189 0.0 4.0 0.00 0.00 0.00 66 1018.0
20260506170018 68 179 0.0 3.0 0.00 0.00 0.00 68 1018.2
20260506164517 66 158 0.0 6.0 0.00 0.00 0.00 66 1018.1
20260506163017 66 169 0.0 1.0 0.00 0.00 0.00 71 1018.3
20260506161510 64 169 0.0 2.0 0.00 0.00 0.00 72 1018.4
20260506160008 64 168 0.0 1.0 0.00 0.00 0.00 76 1018.4
20260506154503 62 166 0.0 5.0 0.00 0.00 0.00 80 1018.4
20260506153100 61 167 0.0 4.0 0.00 0.00 0.00 84 1018.4
20260506151558 60 205 0.0 1.0 0.00 0.00 0.00 89 1018.2
20260506150051 58 206 0.0 0.0 0.00 0.00 0.00 92 1018.3
20260506144552 56 233 0.0 0.0 0.00 0.00 0.00 93 1018.4
20260506143043 54 233 0.0 0.0 0.00 0.00 0.00 94 1018.2
20260506141541 52 270 0.0 0.0 0.00 0.00 0.00 93 1018.3
20260506140040 50 270 0.0 0.0 0.00 0.00 0.00 93 1018.1
20260506134539 49 270 0.0 0.0 0.00 0.00 0.00 92 1018.1
20260506133049 49 270 0.0 0.0 0.00 0.00 0.00 92 1017.9